| time (UTC) | temp F | wind direction | speed MPH | gust MPH | rain 1hr in | rain 24hr in | rain mn in | humidity % | barometer mb |
| 20260506042709 | 66 | 243 | 4.0 | 6.0 | 0.00 | 0.00 | 0.00 | 70 | 1010.0 |
| 20260506042206 | 66 | 194 | 6.0 | 9.0 | 0.00 | 0.00 | 0.00 | 69 | 1010.0 |
| 20260506041705 | 67 | 71 | 4.0 | 8.0 | 0.00 | 0.00 | 0.00 | 69 | 1010.1 |
| 20260506041201 | 67 | 234 | 6.0 | 8.0 | 0.00 | 0.00 | 0.00 | 68 | 1009.9 |
| 20260506040659 | 67 | 155 | 3.0 | 6.0 | 0.00 | 0.00 | 0.00 | 67 | 1009.9 |
| 20260506040155 | 67 | 175 | 13.0 | 16.0 | 0.00 | 0.00 | 0.00 | 67 | 1010.1 |
| 20260506035652 | 67 | 162 | 8.0 | 13.0 | 0.00 | 0.00 | 0.00 | 67 | 1010.0 |
| 20260506035149 | 67 | 55 | 6.0 | 9.0 | 0.00 | 0.00 | 0.00 | 67 | 1009.9 |
| 20260506034646 | 68 | 226 | 3.0 | 6.0 | 0.00 | 0.00 | 0.00 | 66 | 1010.3 |
| 20260506034143 | 68 | 304 | 3.0 | 4.0 | 0.00 | 0.00 | 0.00 | 66 | 1010.0 |
| 20260506033640 | 68 | 84 | 3.0 | 9.0 | 0.00 | 0.00 | 0.00 | 66 | 1009.9 |
| 20260506033137 | 68 | 199 | 6.0 | 9.0 | 0.00 | 0.00 | 0.00 | 65 | 1009.9 |
| 20260506032634 | 68 | 181 | 3.0 | 7.0 | 0.00 | 0.00 | 0.00 | 65 | 1009.8 |
| 20260506032131 | 68 | 300 | 4.0 | 6.0 | 0.00 | 0.00 | 0.00 | 64 | 1009.6 |
| 20260506031628 | 68 | 152 | 8.0 | 11.0 | 0.00 | 0.00 | 0.00 | 64 | 1009.7 |
| 20260506031125 | 68 | 122 | 11.0 | 13.0 | 0.00 | 0.00 | 0.00 | 64 | 1009.7 |
| 20260506030624 | 68 | 143 | 7.0 | 11.0 | 0.00 | 0.00 | 0.00 | 65 | 1009.8 |
| 20260506030121 | 68 | 126 | 3.0 | 4.0 | 0.00 | 0.00 | 0.00 | 65 | 1009.6 |
| 20260506025617 | 67 | 166 | 7.0 | 10.0 | 0.00 | 0.00 | 0.00 | 64 | 1009.7 |
| 20260506025113 | 67 | 157 | 6.0 | 10.0 | 0.00 | 0.00 | 0.00 | 65 | 1009.8 |
| 20260506024611 | 67 | 79 | 6.0 | 14.0 | 0.00 | 0.00 | 0.00 | 65 | 1009.8 |
| 20260506024107 | 67 | 121 | 7.0 | 11.0 | 0.00 | 0.00 | 0.00 | 65 | 1009.7 |
| 20260506023603 | 67 | 87 | 6.0 | 8.0 | 0.00 | 0.00 | 0.00 | 65 | 1009.8 |
| 20260506023101 | 67 | 260 | 5.0 | 7.0 | 0.00 | 0.00 | 0.00 | 64 | 1009.9 |
| 20260506022558 | 67 | 252 | 3.0 | 4.0 | 0.00 | 0.00 | 0.00 | 65 | 1009.9 |
| 20260506022056 | 67 | 175 | 3.0 | 6.0 | 0.00 | 0.00 | 0.00 | 65 | 1009.8 |
| 20260506021553 | 67 | 164 | 4.0 | 4.0 | 0.00 | 0.00 | 0.00 | 64 | 1009.9 |
| 20260506021050 | 67 | 21 | 2.0 | 3.0 | 0.00 | 0.00 | 0.00 | 65 | 1009.8 |
| 20260506020547 | 67 | 10 | 6.0 | 9.0 | 0.00 | 0.00 | 0.00 | 65 | 1009.7 |
| 20260506020044 | 67 | 291 | 7.0 | 11.0 | 0.00 | 0.00 | 0.00 | 64 | 1009.7 |
| 20260506015542 | 68 | 288 | 4.0 | 6.0 | 0.00 | 0.00 | 0.00 | 64 | 1009.8 |
| 20260506015039 | 68 | 249 | 6.0 | 8.0 | 0.00 | 0.00 | 0.00 | 63 | 1009.8 |
| 20260506014536 | 68 | 158 | 3.0 | 6.0 | 0.00 | 0.00 | 0.00 | 63 | 1009.7 |
| 20260506014032 | 68 | 165 | 6.0 | 9.0 | 0.00 | 0.00 | 0.00 | 63 | 1010.0 |
| 20260506013531 | 68 | 282 | 4.0 | 8.0 | 0.00 | 0.00 | 0.00 | 63 | 1009.6 |
| 20260506013027 | 68 | 204 | 6.0 | 10.0 | 0.00 | 0.00 | 0.00 | 62 | 1009.9 |
| 20260506012523 | 67 | 150 | 7.0 | 10.0 | 0.00 | 0.00 | 0.00 | 63 | 1009.4 |
| 20260506012020 | 67 | 344 | 1.0 | 1.0 | 0.00 | 0.00 | 0.00 | 64 | 1009.7 |
| 20260506011517 | 66 | 69 | 4.0 | 6.0 | 0.00 | 0.00 | 0.00 | 64 | 1009.7 |
| 20260506011013 | 66 | 303 | 0.0 | 0.0 | 0.00 | 0.00 | 0.00 | 65 | 1009.5 |
| 20260506010508 | 66 | 349 | 1.0 | 2.0 | 0.00 | 0.00 | 0.00 | 65 | 1009.4 |
| 20260506010003 | 66 | 40 | 2.0 | 7.0 | 0.00 | 0.00 | 0.00 | 65 | 1009.2 |
| 20260506005501 | 66 | 13 | 4.0 | 4.0 | 0.00 | 0.00 | 0.00 | 64 | 1009.3 |
| 20260506004956 | 66 | 280 | 3.0 | 3.0 | 0.00 | 0.00 | 0.00 | 64 | 1009.1 |
| 20260506004454 | 67 | 63 | 4.0 | 7.0 | 0.00 | 0.00 | 0.00 | 63 | 1009.2 |
| 20260506003950 | 67 | 84 | 2.0 | 4.0 | 0.00 | 0.00 | 0.00 | 63 | 1009.1 |
| 20260506003446 | 67 | 308 | 0.0 | 0.0 | 0.00 | 0.00 | 0.00 | 63 | 1009.0 |
| 20260506002943 | 67 | 316 | 1.0 | 3.0 | 0.00 | 0.00 | 0.00 | 64 | 1009.0 |
| 20260506002439 | 67 | 58 | 3.0 | 6.0 | 0.00 | 0.00 | 0.00 | 63 | 1009.0 |
| 20260506001934 | 67 | 301 | 1.0 | 1.0 | 0.00 | 0.00 | 0.00 | 64 | 1008.8 |
| 20260506001432 | 67 | 305 | 0.0 | 1.0 | 0.00 | 0.00 | 0.00 | 63 | 1008.8 |
| 20260506000929 | 67 | 6 | 4.0 | 6.0 | 0.00 | 0.00 | 0.00 | 63 | 1008.8 |
| 20260506000427 | 68 | 80 | 3.0 | 4.0 | 0.00 | 0.00 | 0.00 | 63 | 1008.8 |
| 20260505235923 | 68 | 61 | 3.0 | 4.0 | 0.00 | 0.00 | 0.00 | 63 | 1008.8 |
| 20260505235421 | 69 | 36 | 2.0 | 2.0 | 0.00 | 0.00 | 0.00 | 61 | 1008.7 |
| 20260505234918 | 69 | 312 | 2.0 | 2.0 | 0.00 | 0.00 | 0.00 | 59 | 1008.7 |
| 20260505234415 | 70 | 53 | 2.0 | 4.0 | 0.00 | 0.00 | 0.00 | 59 | 1008.4 |
| 20260505233912 | 70 | 301 | 4.0 | 6.0 | 0.00 | 0.00 | 0.00 | 59 | 1008.3 |
| 20260505233410 | 69 | 332 | 2.0 | 4.0 | 0.00 | 0.00 | 0.00 | 60 | 1008.3 |
| 20260505232907 | 69 | 356 | 2.0 | 2.0 | 0.00 | 0.00 | 0.00 | 61 | 1008.0 |
| 20260505232405 | 69 | 17 | 4.0 | 4.0 | 0.00 | 0.00 | 0.00 | 61 | 1008.1 |
| 20260505231901 | 69 | 37 | 3.0 | 4.0 | 0.00 | 0.00 | 0.00 | 60 | 1007.9 |
| 20260505231359 | 69 | 68 | 2.0 | 3.0 | 0.00 | 0.00 | 0.00 | 61 | 1008.0 |
| 20260505230857 | 69 | 123 | 4.0 | 4.0 | 0.00 | 0.00 | 0.00 | 61 | 1007.9 |
| 20260505230354 | 69 | 42 | 4.0 | 7.0 | 0.00 | 0.00 | 0.00 | 62 | 1007.8 |
| 20260505225851 | 69 | 32 | 6.0 | 7.0 | 0.00 | 0.00 | 0.00 | 62 | 1008.0 |
| 20260505225348 | 69 | 11 | 5.0 | 6.0 | 0.00 | 0.00 | 0.00 | 61 | 1007.9 |
| 20260505224843 | 71 | 300 | 4.0 | 6.0 | 0.00 | 0.00 | 0.00 | 60 | 1007.8 |
| 20260505224341 | 71 | 43 | 3.0 | 4.0 | 0.00 | 0.00 | 0.00 | 59 | 1007.7 |
| 20260505223838 | 71 | 355 | 6.0 | 7.0 | 0.00 | 0.00 | 0.00 | 58 | 1007.7 |
| 20260505223335 | 72 | 24 | 9.0 | 11.0 | 0.00 | 0.00 | 0.00 | 57 | 1007.6 |
| 20260505222830 | 73 | 95 | 6.0 | 10.0 | 0.00 | 0.00 | 0.00 | 55 | 1007.6 |
| 20260505222327 | 73 | 286 | 4.0 | 7.0 | 0.00 | 0.00 | 0.00 | 52 | 1007.5 |
| 20260505221824 | 76 | 5 | 3.0 | 4.0 | 0.00 | 0.00 | 0.00 | 51 | 1007.4 |
| 20260505221321 | 77 | 22 | 2.0 | 3.0 | 0.00 | 0.00 | 0.00 | 45 | 1007.4 |
| 20260505220818 | 77 | 262 | 4.0 | 6.0 | 0.00 | 0.00 | 0.00 | 44 | 1007.3 |
| 20260505220315 | 77 | 47 | 5.0 | 7.0 | 0.00 | 0.00 | 0.00 | 47 | 1007.2 |
| 20260505215813 | 78 | 125 | 2.0 | 4.0 | 0.00 | 0.00 | 0.00 | 43 | 1007.2 |
| 20260505215310 | 78 | 121 | 5.0 | 8.0 | 0.00 | 0.00 | 0.00 | 44 | 1007.3 |
| 20260505214808 | 77 | 286 | 1.0 | 1.0 | 0.00 | 0.00 | 0.00 | 47 | 1007.2 |
| 20260505214306 | 79 | 330 | 3.0 | 6.0 | 0.00 | 0.00 | 0.00 | 46 | 1007.4 |
| 20260505213802 | 79 | 307 | 2.0 | 2.0 | 0.00 | 0.00 | 0.00 | 41 | 1007.2 |
| 20260505213300 | 82 | 228 | 1.0 | 2.0 | 0.00 | 0.00 | 0.00 | 38 | 1007.0 |
| 20260505212755 | 83 | 278 | 4.0 | 7.0 | 0.00 | 0.00 | 0.00 | 34 | 1007.1 |
| 20260505212253 | 83 | 99 | 9.0 | 11.0 | 0.00 | 0.00 | 0.00 | 34 | 1007.2 |
| 20260505211749 | 81 | 287 | 2.0 | 2.0 | 0.00 | 0.00 | 0.00 | 35 | 1007.0 |
| 20260505211247 | 79 | 210 | 5.0 | 8.0 | 0.00 | 0.00 | 0.00 | 40 | 1007.0 |
| 20260505210743 | 81 | 319 | 1.0 | 2.0 | 0.00 | 0.00 | 0.00 | 43 | 1007.2 |
| 20260505210240 | 83 | 167 | 2.0 | 6.0 | 0.00 | 0.00 | 0.00 | 34 | 1007.0 |
| 20260505205737 | 83 | 168 | 6.0 | 11.0 | 0.00 | 0.00 | 0.00 | 34 | 1006.8 |
| 20260505205236 | 78 | 219 | 3.0 | 7.0 | 0.00 | 0.00 | 0.00 | 38 | 1006.9 |
| 20260505204732 | 76 | 18 | 5.0 | 7.0 | 0.00 | 0.00 | 0.00 | 48 | 1006.7 |
| 20260505204230 | 78 | 168 | 3.0 | 4.0 | 0.00 | 0.00 | 0.00 | 44 | 1007.0 |
| 20260505203726 | 78 | 85 | 3.0 | 4.0 | 0.00 | 0.00 | 0.00 | 47 | 1006.9 |
| 20260505203224 | 82 | 51 | 3.0 | 4.0 | 0.00 | 0.00 | 0.00 | 40 | 1007.0 |
| 20260505202719 | 84 | 349 | 3.0 | 4.0 | 0.00 | 0.00 | 0.00 | 31 | 1007.0 |
| 20260505202216 | 80 | 277 | 6.0 | 13.0 | 0.00 | 0.00 | 0.00 | 36 | 1006.9 |
| 20260505201712 | 76 | 21 | 5.0 | 7.0 | 0.00 | 0.00 | 0.00 | 49 | 1007.1 |
| 20260505201210 | 76 | 44 | 6.0 | 8.0 | 0.00 | 0.00 | 0.00 | 51 | 1007.1 |
| 20260505200708 | 76 | 345 | 6.0 | 8.0 | 0.00 | 0.00 | 0.00 | 51 | 1007.1 |
| 20260505200205 | 77 | 299 | 1.0 | 1.0 | 0.00 | 0.00 | 0.00 | 50 | 1007.5 |
| 20260505195700 | 76 | 291 | 4.0 | 6.0 | 0.00 | 0.00 | 0.00 | 51 | 1007.2 |
| 20260505195158 | 76 | 32 | 5.0 | 7.0 | 0.00 | 0.00 | 0.00 | 50 | 1007.2 |
| 20260505194655 | 75 | 40 | 3.0 | 6.0 | 0.00 | 0.00 | 0.00 | 52 | 1007.4 |
| 20260505194151 | 75 | 54 | 2.0 | 6.0 | 0.00 | 0.00 | 0.00 | 52 | 1007.6 |
| 20260505193648 | 75 | 307 | 2.0 | 2.0 | 0.00 | 0.00 | 0.00 | 53 | 1007.3 |
| 20260505193145 | 76 | 290 | 2.0 | 2.0 | 0.00 | 0.00 | 0.00 | 53 | 1007.7 |
| 20260505192643 | 74 | 82 | 3.0 | 4.0 | 0.00 | 0.00 | 0.00 | 55 | 1007.8 |
| 20260505192141 | 75 | 32 | 3.0 | 4.0 | 0.00 | 0.00 | 0.00 | 54 | 1007.9 |
| 20260505191639 | 76 | 71 | 5.0 | 7.0 | 0.00 | 0.00 | 0.00 | 52 | 1008.0 |
| 20260505191137 | 77 | 73 | 6.0 | 7.0 | 0.00 | 0.00 | 0.00 | 52 | 1008.2 |
| 20260505190632 | 76 | 308 | 2.0 | 3.0 | 0.00 | 0.00 | 0.00 | 52 | 1008.2 |
| 20260505190127 | 75 | 29 | 3.0 | 4.0 | 0.00 | 0.00 | 0.00 | 54 | 1008.2 |
| 20260505185624 | 74 | 338 | 4.0 | 6.0 | 0.00 | 0.00 | 0.00 | 55 | 1008.4 |
| 20260505185121 | 74 | 333 | 6.0 | 8.0 | 0.00 | 0.00 | 0.00 | 55 | 1008.4 |
| 20260505184617 | 73 | 337 | 4.0 | 4.0 | 0.00 | 0.00 | 0.00 | 56 | 1008.5 |
| 20260505184114 | 72 | 358 | 5.0 | 6.0 | 0.00 | 0.00 | 0.00 | 57 | 1008.6 |
| 20260505183611 | 74 | 268 | 4.0 | 7.0 | 0.00 | 0.00 | 0.00 | 55 | 1008.8 |
| 20260505183109 | 75 | 57 | 6.0 | 7.0 | 0.00 | 0.00 | 0.00 | 54 | 1008.8 |
| 20260505182604 | 74 | 169 | 5.0 | 8.0 | 0.00 | 0.00 | 0.00 | 55 | 1009.0 |
| 20260505182102 | 74 | 301 | 1.0 | 1.0 | 0.00 | 0.00 | 0.00 | 53 | 1008.9 |
| 20260505181558 | 75 | 38 | 4.0 | 6.0 | 0.00 | 0.00 | 0.00 | 52 | 1008.9 |
| 20260505181056 | 75 | 61 | 7.0 | 8.0 | 0.00 | 0.00 | 0.00 | 53 | 1009.0 |
| 20260505180551 | 75 | 318 | 3.0 | 3.0 | 0.00 | 0.00 | 0.00 | 53 | 1008.9 |
| 20260505180049 | 77 | 105 | 6.0 | 7.0 | 0.00 | 0.00 | 0.00 | 50 | 1009.0 |
| 20260505175544 | 76 | 99 | 2.0 | 2.0 | 0.00 | 0.00 | 0.00 | 51 | 1008.8 |
| 20260505175041 | 75 | 321 | 3.0 | 6.0 | 0.00 | 0.00 | 0.00 | 53 | 1009.1 |
| 20260505174538 | 76 | 25 | 4.0 | 6.0 | 0.00 | 0.00 | 0.00 | 52 | 1008.7 |
| 20260505174034 | 76 | 328 | 4.0 | 7.0 | 0.00 | 0.00 | 0.00 | 51 | 1009.0 |
| 20260505173531 | 77 | 300 | 1.0 | 2.0 | 0.00 | 0.00 | 0.00 | 50 | 1009.1 |
| 20260505173028 | 77 | 324 | 4.0 | 6.0 | 0.00 | 0.00 | 0.00 | 50 | 1009.0 |
| 20260505172526 | 77 | 309 | 2.0 | 3.0 | 0.00 | 0.00 | 0.00 | 49 | 1009.2 |
| 20260505172021 | 77 | 47 | 5.0 | 8.0 | 0.00 | 0.00 | 0.00 | 48 | 1009.1 |
| 20260505171517 | 76 | 119 | 1.0 | 2.0 | 0.00 | 0.00 | 0.00 | 49 | 1009.1 |
| 20260505171014 | 76 | 328 | 2.0 | 3.0 | 0.00 | 0.00 | 0.00 | 49 | 1009.2 |
| 20260505170511 | 77 | 15 | 1.0 | 2.0 | 0.00 | 0.00 | 0.00 | 49 | 1009.2 |
| 20260505170007 | 77 | 36 | 2.0 | 4.0 | 0.00 | 0.00 | 0.00 | 47 | 1009.3 |
| 20260505165502 | 77 | 301 | 1.0 | 2.0 | 0.00 | 0.00 | 0.00 | 49 | 1009.3 |
| 20260505164958 | 77 | 41 | 5.0 | 6.0 | 0.00 | 0.00 | 0.00 | 48 | 1009.5 |
| 20260505164454 | 80 | 335 | 4.0 | 6.0 | 0.00 | 0.00 | 0.00 | 46 | 1009.7 |
| 20260505163952 | 78 | 312 | 1.0 | 1.0 | 0.00 | 0.00 | 0.00 | 46 | 1009.4 |
| 20260505163451 | 77 | 352 | 4.0 | 4.0 | 0.00 | 0.00 | 0.00 | 47 | 1009.6 |
| 20260505162950 | 79 | 312 | 0.0 | 0.0 | 0.00 | 0.00 | 0.00 | 44 | 1009.6 |
| 20260505162445 | 77 | 305 | 0.0 | 0.0 | 0.00 | 0.00 | 0.00 | 48 | 1009.7 |
| 20260505161942 | 77 | 312 | 2.0 | 3.0 | 0.00 | 0.00 | 0.00 | 48 | 1009.8 |
| 20260505161439 | 76 | 306 | 2.0 | 3.0 | 0.00 | 0.00 | 0.00 | 49 | 1009.9 |
| 20260505160936 | 76 | 293 | 3.0 | 3.0 | 0.00 | 0.00 | 0.00 | 49 | 1010.0 |
| 20260505160434 | 78 | 356 | 4.0 | 6.0 | 0.00 | 0.00 | 0.00 | 48 | 1010.0 |
| 20260505152904 | 77 | 246 | 2.0 | 3.0 | 0.00 | 0.00 | 0.00 | 47 | 1010.1 |
| 20260505152401 | 76 | 306 | 0.0 | 0.0 | 0.00 | 0.00 | 0.00 | 48 | 1010.2 |
| 20260505151855 | 74 | 291 | 4.0 | 6.0 | 0.00 | 0.00 | 0.00 | 51 | 1010.2 |
| 20260505151352 | 75 | 236 | 4.0 | 8.0 | 0.00 | 0.00 | 0.00 | 50 | 1010.4 |
| 20260505150849 | 74 | 278 | 1.0 | 2.0 | 0.00 | 0.00 | 0.00 | 51 | 1010.7 |
| 20260505150346 | 75 | 109 | 3.0 | 4.0 | 0.00 | 0.00 | 0.00 | 50 | 1010.5 |
| 20260505140311 | 71 | 69 | 4.0 | 6.0 | 0.00 | 0.00 | 0.00 | 56 | 1010.6 |
| 20260505130234 | 67 | 125 | 5.0 | 8.0 | 0.00 | 0.00 | 0.00 | 63 | 1010.5 |
| 20260505124725 | 69 | 168 | 3.0 | 6.0 | 0.00 | 0.00 | 0.00 | 59 | 1010.4 |
| 20260505124222 | 69 | 97 | 4.0 | 6.0 | 0.00 | 0.00 | 0.00 | 59 | 1010.6 |
| 20260505123717 | 70 | 240 | 3.0 | 4.0 | 0.00 | 0.00 | 0.00 | 57 | 1010.5 |
| 20260505123214 | 69 | 329 | 4.0 | 4.0 | 0.00 | 0.00 | 0.00 | 58 | 1010.7 |
| 20260505122711 | 69 | 161 | 5.0 | 6.0 | 0.00 | 0.00 | 0.00 | 59 | 1010.4 |
| 20260505122208 | 69 | 240 | 2.0 | 3.0 | 0.00 | 0.00 | 0.00 | 59 | 1010.3 |
| 20260505121704 | 68 | 278 | 2.0 | 3.0 | 0.00 | 0.00 | 0.00 | 60 | 1010.3 |
| 20260505121201 | 69 | 284 | 0.0 | 1.0 | 0.00 | 0.00 | 0.00 | 60 | 1010.3 |
| 20260505120657 | 68 | 282 | 3.0 | 4.0 | 0.00 | 0.00 | 0.00 | 61 | 1010.2 |
| 20260505120154 | 67 | 205 | 2.0 | 3.0 | 0.00 | 0.00 | 0.00 | 63 | 1010.2 |
| 20260505115647 | 68 | 345 | 2.0 | 2.0 | 0.00 | 0.00 | 0.00 | 61 | 1010.4 |
| 20260505115145 | 67 | 24 | 1.0 | 1.0 | 0.00 | 0.00 | 0.00 | 61 | 1010.4 |
| 20260505114642 | 66 | 196 | 5.0 | 7.0 | 0.00 | 0.00 | 0.00 | 62 | 1010.5 |
| 20260505114138 | 66 | 152 | 6.0 | 7.0 | 0.00 | 0.00 | 0.00 | 62 | 1010.5 |
| 20260505113635 | 66 | 161 | 4.0 | 4.0 | 0.00 | 0.00 | 0.00 | 63 | 1010.4 |
| 20260505113131 | 66 | 237 | 4.0 | 6.0 | 0.00 | 0.00 | 0.00 | 63 | 1010.5 |
| 20260505112628 | 65 | 198 | 2.0 | 3.0 | 0.00 | 0.00 | 0.00 | 64 | 1010.6 |
| 20260505112126 | 64 | 300 | 1.0 | 1.0 | 0.00 | 0.00 | 0.00 | 67 | 1010.6 |
| 20260505111620 | 63 | 301 | 0.0 | 0.0 | 0.00 | 0.00 | 0.00 | 69 | 1010.5 |
| 20260505111116 | 62 | 194 | 3.0 | 4.0 | 0.00 | 0.00 | 0.00 | 69 | 1010.4 |
| 20260505110612 | 61 | 307 | 1.0 | 1.0 | 0.00 | 0.00 | 0.00 | 71 | 1010.5 |
| 20260505110109 | 61 | 179 | 2.0 | 6.0 | 0.00 | 0.00 | 0.00 | 71 | 1010.6 |
| 20260505102045 | 60 | 230 | 3.0 | 3.0 | 0.00 | 0.00 | 0.00 | 74 | 1010.6 |
| 20260505101543 | 60 | 208 | 3.0 | 3.0 | 0.00 | 0.00 | 0.00 | 74 | 1010.5 |
| 20260505101039 | 60 | 289 | 2.0 | 2.0 | 0.00 | 0.00 | 0.00 | 75 | 1010.3 |
| 20260505100536 | 60 | 180 | 1.0 | 2.0 | 0.00 | 0.00 | 0.00 | 74 | 1009.9 |
| 20260505100033 | 59 | 139 | 3.0 | 4.0 | 0.00 | 0.00 | 0.00 | 75 | 1009.9 |
| 20260505095529 | 60 | 300 | 0.0 | 1.0 | 0.00 | 0.00 | 0.00 | 74 | 1009.7 |
| 20260505095026 | 60 | 225 | 1.0 | 2.0 | 0.00 | 0.00 | 0.00 | 74 | 1009.4 |
| 20260505094522 | 60 | 308 | 1.0 | 1.0 | 0.00 | 0.00 | 0.00 | 74 | 1009.6 |
| 20260505094019 | 60 | 118 | 3.0 | 4.0 | 0.00 | 0.00 | 0.00 | 73 | 1009.5 |
| 20260505093515 | 60 | 255 | 1.0 | 2.0 | 0.00 | 0.00 | 0.00 | 73 | 1009.2 |
| 20260505093013 | 60 | 194 | 1.0 | 2.0 | 0.00 | 0.00 | 0.00 | 73 | 1009.5 |
| 20260505092510 | 59 | 202 | 2.0 | 3.0 | 0.00 | 0.00 | 0.00 | 74 | 1009.6 |
| 20260505092008 | 59 | 300 | 1.0 | 2.0 | 0.00 | 0.00 | 0.00 | 74 | 1009.5 |
| 20260505091505 | 59 | 297 | 0.0 | 1.0 | 0.00 | 0.00 | 0.00 | 74 | 1009.6 |
| 20260505091003 | 59 | 212 | 2.0 | 3.0 | 0.00 | 0.00 | 0.00 | 74 | 1009.4 |
| 20260505090501 | 59 | 199 | 2.0 | 4.0 | 0.00 | 0.00 | 0.00 | 74 | 1009.5 |
| 20260505085958 | 59 | 284 | 1.0 | 2.0 | 0.00 | 0.00 | 0.00 | 74 | 1009.5 |
| 20260505085456 | 59 | 305 | 0.0 | 0.0 | 0.00 | 0.00 | 0.00 | 74 | 1009.7 |
| 20260505084954 | 59 | 259 | 2.0 | 3.0 | 0.00 | 0.00 | 0.00 | 73 | 1009.6 |
| 20260505084452 | 59 | 294 | 1.0 | 1.0 | 0.00 | 0.00 | 0.00 | 73 | 1009.7 |
| 20260505083949 | 59 | 301 | 1.0 | 1.0 | 0.00 | 0.00 | 0.00 | 73 | 1009.5 |
| 20260505083446 | 59 | 304 | 2.0 | 3.0 | 0.00 | 0.00 | 0.00 | 72 | 1009.7 |
| 20260505082943 | 59 | 306 | 0.0 | 0.0 | 0.00 | 0.00 | 0.00 | 72 | 1009.6 |
| 20260505082438 | 60 | 297 | 3.0 | 4.0 | 0.00 | 0.00 | 0.00 | 72 | 1009.6 |
| 20260505081936 | 60 | 187 | 3.0 | 4.0 | 0.00 | 0.00 | 0.00 | 72 | 1009.4 |
| 20260505081432 | 60 | 241 | 2.0 | 2.0 | 0.00 | 0.00 | 0.00 | 71 | 1009.6 |
| 20260505080929 | 60 | 314 | 1.0 | 2.0 | 0.00 | 0.00 | 0.00 | 72 | 1009.3 |
| 20260505080425 | 60 | 208 | 2.0 | 3.0 | 0.00 | 0.00 | 0.00 | 72 | 1009.7 |
| 20260505075920 | 60 | 297 | 1.0 | 1.0 | 0.00 | 0.00 | 0.00 | 72 | 1009.7 |
| 20260505075418 | 59 | 189 | 2.0 | 4.0 | 0.00 | 0.00 | 0.00 | 72 | 1009.7 |
| 20260505074915 | 59 | 255 | 1.0 | 1.0 | 0.00 | 0.00 | 0.00 | 72 | 1009.7 |
| 20260505074412 | 59 | 283 | 2.0 | 3.0 | 0.00 | 0.00 | 0.00 | 73 | 1009.5 |
| 20260505073909 | 59 | 247 | 3.0 | 4.0 | 0.00 | 0.00 | 0.00 | 73 | 1009.6 |
| 20260505073407 | 59 | 212 | 0.0 | 0.0 | 0.00 | 0.00 | 0.00 | 74 | 1009.5 |
| 20260505072904 | 59 | 166 | 4.0 | 6.0 | 0.00 | 0.00 | 0.00 | 74 | 1009.7 |
| 20260505072400 | 58 | 302 | 1.0 | 2.0 | 0.00 | 0.00 | 0.00 | 75 | 1009.6 |
| 20260505071856 | 57 | 323 | 1.0 | 1.0 | 0.00 | 0.00 | 0.00 | 77 | 1009.4 |
| 20260505071352 | 57 | 298 | 0.0 | 0.0 | 0.00 | 0.00 | 0.00 | 77 | 1009.3 |
| 20260505070851 | 57 | 308 | 0.0 | 0.0 | 0.00 | 0.00 | 0.00 | 78 | 1009.5 |
| 20260505070347 | 57 | 26 | 1.0 | 2.0 | 0.00 | 0.00 | 0.00 | 78 | 1009.4 |
| 20260505065842 | 57 | 318 | 0.0 | 1.0 | 0.00 | 0.00 | 0.00 | 77 | 1009.4 |
| 20260505065339 | 57 | 305 | 0.0 | 0.0 | 0.00 | 0.00 | 0.00 | 78 | 1009.3 |
| 20260505064836 | 57 | 308 | 0.0 | 0.0 | 0.00 | 0.00 | 0.00 | 78 | 1009.6 |
| 20260505064333 | 57 | 312 | 0.0 | 0.0 | 0.00 | 0.00 | 0.00 | 77 | 1009.3 |
| 20260505063832 | 57 | 306 | 0.0 | 0.0 | 0.00 | 0.00 | 0.00 | 77 | 1009.5 |
| 20260505063327 | 57 | 303 | 0.0 | 0.0 | 0.00 | 0.00 | 0.00 | 76 | 1009.4 |
| 20260505062824 | 57 | 305 | 0.0 | 0.0 | 0.00 | 0.00 | 0.00 | 75 | 1009.5 |
| 20260505062322 | 57 | 309 | 0.0 | 0.0 | 0.00 | 0.00 | 0.00 | 75 | 1009.7 |
| 20260505061818 | 58 | 301 | 0.0 | 0.0 | 0.00 | 0.00 | 0.00 | 75 | 1009.5 |
| 20260505061316 | 58 | 316 | 1.0 | 1.0 | 0.00 | 0.00 | 0.00 | 75 | 1009.6 |
| 20260505060814 | 58 | 307 | 0.0 | 0.0 | 0.00 | 0.00 | 0.00 | 74 | 1009.6 |
| 20260505060310 | 58 | 342 | 0.0 | 1.0 | 0.00 | 0.00 | 0.00 | 74 | 1009.6 |
| 20260505055806 | 58 | 310 | 1.0 | 1.0 | 0.00 | 0.00 | 0.00 | 74 | 1009.8 |
| 20260505055303 | 58 | 318 | 0.0 | 1.0 | 0.00 | 0.00 | 0.00 | 73 | 1009.7 |
| 20260505054800 | 58 | 314 | 0.0 | 0.0 | 0.00 | 0.00 | 0.00 | 73 | 1009.7 |
| 20260505054257 | 59 | 324 | 1.0 | 1.0 | 0.00 | 0.00 | 0.00 | 72 | 1009.8 |
| 20260505053755 | 59 | 353 | 1.0 | 2.0 | 0.00 | 0.00 | 0.00 | 71 | 1009.6 |
| 20260505053252 | 59 | 312 | 0.0 | 0.0 | 0.00 | 0.00 | 0.00 | 71 | 1009.7 |
| 20260505052749 | 59 | 307 | 0.0 | 0.0 | 0.00 | 0.00 | 0.00 | 71 | 1009.7 |
| 20260505052246 | 59 | 315 | 0.0 | 1.0 | 0.00 | 0.00 | 0.00 | 70 | 1009.8 |
| 20260505051743 | 59 | 19 | 2.0 | 2.0 | 0.00 | 0.00 | 0.00 | 70 | 1009.8 |
| 20260505051241 | 59 | 283 | 1.0 | 1.0 | 0.00 | 0.00 | 0.00 | 69 | 1009.9 |
| 20260505050738 | 59 | 280 | 2.0 | 2.0 | 0.00 | 0.00 | 0.00 | 69 | 1009.7 |
| 20260505050237 | 59 | 321 | 1.0 | 1.0 | 0.00 | 0.00 | 0.00 | 68 | 1009.9 |